AirNav   Air Wisconsin Up To $57,000 Bonus
 
 1085 users online  

DE20 Spirit Airpark
Townsend, Delaware, USA

GOING TO TOWNSEND?


FAA INFORMATION EFFECTIVE 15 JULY 2021

Location

FAA Identifier: DE20
Lat/Long: 39-22-25.0000N 075-44-45.0000W
39-22.416667N 075-44.750000W
39.3736111,-75.7458333
(estimated)
Elevation: 80 ft. / 24 m (estimated)
Variation: 11W (1995)
From city: 4 miles N of TOWNSEND, DE
Time zone: UTC -4 (UTC -5 during Standard Time)
Zip code: 19734

Airport Operations

Airport use: Private use. Permission required prior to landing
Activation date: 06/1999
Control tower: no
ARTCC: NEW YORK CENTER
FSS: MILLVILLE FLIGHT SERVICE STATION
Attendance: DAYLIGHT HOURS
Segmented circle: no

Airport Communications

WX AWOS-3 at EVY (9 nm N): 132.325 (302-378-2063)
WX AWOS-3 at 33N (11 nm SE): 120.125 (302-735-9754)
WX ASOS at ILG (19 nm N): 123.95 (302-328-1536)

Nearby radio navigation aids

VOR radial/distance  VOR name  Freq  Var
ENOr318/13.7SMYRNA VORTAC111.4009W
DQOr209/19.4DUPONT VORTAC114.0010W
OODr242/25.8WOODSTOWN VORTAC112.8010W
MXEr195/32.8MODENA VORTAC113.2009W
VCNr265/37.4CEDAR LAKE VOR/DME115.2010W

 
NDB name  Hdg/Dist  Freq  Var  ID
HADIN216/13.924810WIL .. .-..
RAINBOW276/28.436311WRNB .-. -. -...

Airport Services

Runway Information

Runway 2/20

Dimensions: 3300 x 100 ft. / 1006 x 30 m
Surface: turf
RUNWAY 2  RUNWAY 20
Traffic pattern: leftleft
Obstructions: 50 ft. trees50 ft. trees

Airport Ownership and Management from official FAA records

Ownership: Privately-owned
Owner: DAVID & NANCY CANNAVO
1270 CALDWELL CORNER RD
TOWNSEND, DE 19734
Phone 302-378-1396
Manager: DAVID & NANCY CANNAVO
1270 CALDWELL CORNER RD
TOWNSEND, DE 19734
Phone 302-378-1396

Airport Operational Statistics

Aircraft based on the field: 9
Single engine airplanes: 7
Multi engine airplanes: 1
Jet airplanes: 1
    

Additional Remarks

FOR CD CTC PHILADELPHIA APCH AT 800-354-9884.

Instrument Procedures

There are no published instrument procedures at DE20.

Some nearby airports with instrument procedures:

KEVY - Summit Airport (9 nm N)
33N - Delaware Airpark (11 nm SE)
58M - Claremont Airport (13 nm NW)
KILG - New Castle Airport (19 nm N)
KDOV - Dover Air Force Base (20 nm SE)
 
Loc | Ops | Rwys | IFR | FBO | Links
Com | Nav | Svcs | Stats | Notes
Area around DE20 (Spirit Airpark)
 
Road maps at: MapQuest Bing Google
 
Aerial photo
No photo
 
Sectional chart

 
Airport distance calculator
Flying to Spirit Airpark? Find the distance to fly.

From to DE20

Sunrise and sunset
Times for 01-Aug-2021
 Local
(UTC-4)
 Zulu
(UTC)
Morning civil twilight05:3409:34
Sunrise06:0410:04
Sunset20:1500:15
Evening civil twilight20:4500:45

Current date and time
Zulu (UTC)  01-Aug-2021 17:14:39
Local (UTC-4)  01-Aug-2021 13:14:39
 
METAR
K33N 
11nm SE 
011655Z AUTO 17003KT 10SM BKN043 OVC050 23/18 A2989 RMK A01
KAPG 
16nm W 
011658Z AUTO 18006KT 8SM FEW016 BKN029 OVC038 22/18 A2987 RMK AO2 SLP118 T02150181 $
KILG 
19nm N 
011651Z 19010KT 10SM OVC070 24/17 A2990 RMK AO2 SLP124 T02390167 $
KDOV 
20nm SE 
011656Z AUTO 15008KT 10SM OVC047 24/18 A2987 RMK AO2 SLP118 T02380177 $
TAF
KILG 
19nm N 
011514Z 0115/0212 17005KT P6SM VCSH SCT030 BKN060 TEMPO 0118/0122 -SHRA BKN030 FM012200 17005KT P6SM OVC030 FM020100 25004KT P6SM OVC035 TEMPO 0201/0205 4SM -TSRA BR OVC025CB FM020500 31004KT P6SM SCT045 BKN080 FM020800 32006KT P6SM SCT045
KDOV 
20nm SE 
011600Z 0116/0222 19010KT 6000 RA FEW020 BKN030 BKN100 510102 QNH2983INS WND 23006KT AFT 0202 TEMPO 0118/0124 1600 -TSRA BKN020CB OVC030 BECMG 0204/0205 30006KT 9999 NSW SCT040 QNH2985INS BECMG 0207/0208 33009KT 9999 FEW040 QNH2987INS TX25/0120Z TN18/0210Z
NOTAMs
Click for the latest NOTAMs
NOTAMs are issued by the DoD/FAA and will open in a separate window not controlled by AirNav.

 

 
 

Would you like to see your business listed on this page?

 If your business provides an interesting product or service to pilots, flight crews, aircraft, or users of the Spirit Airpark, you should consider listing it here.  To start the listing process, click on the button below
 
Add a business
 

Other Pages about Spirit Airpark

Update a link
 
Copyright © AirNav, LLC. All rights reserved. Privacy Policy  Contact